カタログに戻る

GLOBALSTAR M024

運用中通信MEO
NORAD 25883·PAYLOAD·🇺🇸 United States

打ち上げ Aug 17, 1999 から Cape Canaveral Space Force Station

Loading…

次のパス (今後24時間)

TLE

最新Source: Space-Track

元期: Sep 14, 2026, 12:40 UTC

1 25883U 99043A   26257.52827067 -.00000139  00000-0 -26306-2 0  9994
2 25883  52.0005  75.4616 0002075 106.0296 286.3164 11.10170512165323

AllMySatでGLOBALSTAR M024をリアルタイム追跡

Download on the App Store